Time,TemperatureF,DewpointF,PressureIn,WindDirection,WindDirectionDegrees,WindSpeedMPH,WindSpeedGustMPH,Humidity,HourlyPrecipIn,Conditions,Clouds,dailyrainin,SoftwareType,DateUTC
2013-06-25 00:01:00,70.7,69.0,29.91,East,96,0.0,0.0,94,0.00,,,0.18,weatherlink.com 1.10,2013-06-25 04:01:00,
2013-06-25 00:16:00,70.6,69.0,29.91,WSW,244,0.0,3.0,95,0.00,,,0.00,weatherlink.com 1.10,2013-06-25 04:16:00,
2013-06-25 00:31:00,70.4,69.0,29.91,SW,215,2.0,5.0,95,0.01,,,0.01,weatherlink.com 1.10,2013-06-25 04:31:00,
2013-06-25 00:46:00,69.9,68.0,29.91,SSW,197,1.0,3.0,92,0.01,,,0.01,weatherlink.com 1.10,2013-06-25 04:46:00,
2013-06-25 01:01:00,69.7,67.0,29.91,NNE,18,0.0,3.0,90,0.01,,,0.01,weatherlink.com 1.10,2013-06-25 05:01:00,
2013-06-25 01:16:00,69.3,66.0,29.90,South,188,0.0,3.0,90,0.01,,,0.01,weatherlink.com 1.10,2013-06-25 05:16:00,
2013-06-25 01:31:00,69.0,66.0,29.90,West,259,0.0,2.0,90,0.00,,,0.01,weatherlink.com 1.10,2013-06-25 05:31:00,
2013-06-25 01:46:00,68.7,66.0,29.90,West,259,0.0,0.0,90,0.00,,,0.01,weatherlink.com 1.10,2013-06-25 05:46:00,
2013-06-25 02:01:00,68.3,65.0,29.91,West,259,0.0,0.0,90,0.00,,,0.01,weatherlink.com 1.10,2013-06-25 06:01:00,
2013-06-25 02:16:00,67.9,65.0,29.91,West,259,0.0,0.0,91,0.00,,,0.01,weatherlink.com 1.10,2013-06-25 06:16:00,
2013-06-25 02:31:00,67.4,65.0,29.91,West,259,1.0,2.0,91,0.00,,,0.01,weatherlink.com 1.10,2013-06-25 06:31:00,
2013-06-25 02:46:00,67.0,65.0,29.90,NNE,32,1.0,2.0,92,0.00,,,0.01,weatherlink.com 1.10,2013-06-25 06:46:00,
2013-06-25 03:01:00,66.8,65.0,29.90,North,9,1.0,3.0,92,0.00,,,0.01,weatherlink.com 1.10,2013-06-25 07:01:00,
2013-06-25 03:16:00,67.0,65.0,29.90,SE,126,0.0,3.0,92,0.00,,,0.01,weatherlink.com 1.10,2013-06-25 07:16:00,
2013-06-25 03:31:00,67.1,65.0,29.90,WSW,257,1.0,5.0,91,0.00,,,0.01,weatherlink.com 1.10,2013-06-25 07:31:00,
2013-06-25 03:46:00,67.3,65.0,29.90,SW,219,2.0,6.0,91,0.00,,,0.01,weatherlink.com 1.10,2013-06-25 07:46:00,
2013-06-25 04:01:00,67.4,65.0,29.90,SSW,202,1.0,5.0,91,0.00,,,0.01,weatherlink.com 1.10,2013-06-25 08:01:00,
2013-06-25 04:16:00,67.4,65.0,29.91,ESE,110,2.0,6.0,91,0.00,,,0.01,weatherlink.com 1.10,2013-06-25 08:16:00,
2013-06-25 04:31:00,67.4,65.0,29.91,WSW,254,1.0,5.0,91,0.00,,,0.01,weatherlink.com 1.10,2013-06-25 08:31:00,
2013-06-25 04:46:00,67.3,65.0,29.91,WNW,284,1.0,5.0,91,0.00,,,0.01,weatherlink.com 1.10,2013-06-25 08:46:00,
2013-06-25 05:01:00,67.2,65.0,29.91,WSW,252,0.0,6.0,91,0.00,,,0.01,weatherlink.com 1.10,2013-06-25 09:01:00,
2013-06-25 05:16:00,67.0,64.0,29.92,WSW,242,1.0,3.0,91,0.00,,,0.01,weatherlink.com 1.10,2013-06-25 09:16:00,
2013-06-25 05:31:00,66.8,64.0,29.91,South,178,0.0,2.0,91,0.00,,,0.01,weatherlink.com 1.10,2013-06-25 09:31:00,
2013-06-25 05:46:00,66.7,64.0,29.92,South,181,1.0,2.0,91,0.00,,,0.01,weatherlink.com 1.10,2013-06-25 09:46:00,
2013-06-25 06:01:00,66.5,64.0,29.92,SSW,198,0.0,4.0,92,0.00,,,0.01,weatherlink.com 1.10,2013-06-25 10:01:00,
2013-06-25 06:16:00,66.6,65.0,29.92,SSW,198,1.0,2.0,93,0.00,,,0.01,weatherlink.com 1.10,2013-06-25 10:16:00,
2013-06-25 06:31:00,66.8,65.0,29.93,SSW,200,0.0,1.0,93,0.00,,,0.01,weatherlink.com 1.10,2013-06-25 10:31:00,
2013-06-25 06:46:00,67.1,65.0,29.93,WSW,240,1.0,4.0,93,0.00,,,0.01,weatherlink.com 1.10,2013-06-25 10:46:00,
2013-06-25 07:01:00,67.5,66.0,29.94,North,5,0.0,3.0,93,0.00,,,0.01,weatherlink.com 1.10,2013-06-25 11:01:00,
2013-06-25 07:16:00,67.9,66.0,29.96,North,11,2.0,5.0,92,0.00,,,0.01,weatherlink.com 1.10,2013-06-25 11:16:00,
2013-06-25 07:31:00,68.1,66.0,29.96,North,9,3.0,7.0,92,0.05,,,0.06,weatherlink.com 1.10,2013-06-25 11:31:00,
2013-06-25 07:46:00,67.8,66.0,29.98,WSW,242,2.0,7.0,93,0.09,,,0.10,weatherlink.com 1.10,2013-06-25 11:46:00,
2013-06-25 08:01:00,67.5,66.0,29.96,SW,227,0.0,4.0,94,0.14,,,0.15,weatherlink.com 1.10,2013-06-25 12:01:00,
2013-06-25 08:16:00,67.3,66.0,29.94,SSE,156,2.0,2.0,94,0.18,,,0.19,weatherlink.com 1.10,2013-06-25 12:16:00,
2013-06-25 08:31:00,67.2,66.0,29.93,SSE,147,0.0,1.0,95,0.14,,,0.20,weatherlink.com 1.10,2013-06-25 12:31:00,
2013-06-25 08:47:00,67.2,66.0,29.92,SSE,147,0.0,2.0,95,0.11,,,0.21,weatherlink.com 1.10,2013-06-25 12:47:00,
2013-06-25 09:02:00,67.2,66.0,29.94,WSW,240,0.0,2.0,95,0.06,,,0.21,weatherlink.com 1.10,2013-06-25 13:02:00,
2013-06-25 09:17:00,67.6,67.0,29.95,NW,325,2.0,3.0,96,0.02,,,0.21,weatherlink.com 1.10,2013-06-25 13:17:00,
2013-06-25 09:32:00,67.6,67.0,29.96,SW,232,0.0,2.0,97,0.01,,,0.21,weatherlink.com 1.10,2013-06-25 13:32:00,
2013-06-25 09:47:00,67.7,67.0,29.98,NW,323,0.0,5.0,97,0.01,,,0.22,weatherlink.com 1.10,2013-06-25 13:47:00,
2013-06-25 10:02:00,68.0,67.0,29.95,West,266,1.0,3.0,97,0.02,,,0.23,weatherlink.com 1.10,2013-06-25 14:02:00,
2013-06-25 10:17:00,68.0,67.0,29.93,SW,215,0.0,3.0,97,0.02,,,0.23,weatherlink.com 1.10,2013-06-25 14:17:00,
2013-06-25 10:32:00,68.8,68.0,29.86,East,90,1.0,3.0,97,0.02,,,0.23,weatherlink.com 1.10,2013-06-25 14:32:00,
2013-06-25 10:47:00,69.0,68.0,29.88,West,272,0.0,3.0,97,0.01,,,0.23,weatherlink.com 1.10,2013-06-25 14:47:00,
2013-06-25 11:02:00,69.3,69.0,29.88,WNW,294,1.0,3.0,97,0.00,,,0.23,weatherlink.com 1.10,2013-06-25 15:02:00,
2013-06-25 11:17:00,69.9,69.0,29.90,SSW,209,1.0,4.0,96,0.00,,,0.23,weatherlink.com 1.10,2013-06-25 15:17:00,
2013-06-25 11:32:00,70.3,69.0,29.91,WSW,257,1.0,4.0,96,0.00,,,0.23,weatherlink.com 1.10,2013-06-25 15:32:00,
2013-06-25 11:47:00,70.9,69.0,29.91,SW,232,0.0,6.0,94,0.00,,,0.23,weatherlink.com 1.10,2013-06-25 15:47:00,
2013-06-25 12:02:00,71.5,69.0,29.91,SW,223,2.0,4.0,91,0.00,,,0.23,weatherlink.com 1.10,2013-06-25 16:02:00,
2013-06-25 12:17:00,72.7,69.0,29.91,SSE,165,3.0,6.0,89,0.00,,,0.23,weatherlink.com 1.10,2013-06-25 16:17:00,
2013-06-25 12:32:00,73.8,70.0,29.92,SW,219,3.0,5.0,87,0.00,,,0.23,weatherlink.com 1.10,2013-06-25 16:32:00,
2013-06-25 13:02:00,74.5,71.0,29.91,WSW,246,1.0,7.0,87,0.00,,,0.23,weatherlink.com 1.10,2013-06-25 17:02:00,
2013-06-25 13:17:00,74.2,70.0,29.91,SW,232,2.0,4.0,86,0.00,,,0.23,weatherlink.com 1.10,2013-06-25 17:17:00,
2013-06-25 13:32:00,75.5,70.0,29.91,West,268,1.0,3.0,84,0.00,,,0.23,weatherlink.com 1.10,2013-06-25 17:32:00,
2013-06-25 13:47:00,77.3,71.0,29.91,NW,317,2.0,3.0,82,0.00,,,0.23,weatherlink.com 1.10,2013-06-25 17:47:00,
2013-06-25 14:02:00,77.0,72.0,29.91,WSW,246,3.0,5.0,83,0.00,,,0.23,weatherlink.com 1.10,2013-06-25 18:02:00,
2013-06-25 14:18:00,76.9,72.0,29.91,WSW,252,1.0,4.0,84,0.00,,,0.23,weatherlink.com 1.10,2013-06-25 18:18:00,
2013-06-25 14:32:00,78.5,73.0,29.89,North,360,0.0,3.0,82,0.00,,,0.23,weatherlink.com 1.10,2013-06-25 18:32:00,
2013-06-25 14:47:00,78.7,71.0,29.86,ESE,115,1.0,4.0,78,0.00,,,0.23,weatherlink.com 1.10,2013-06-25 18:47:00,
2013-06-25 15:02:00,78.6,71.0,29.83,SSE,161,1.0,2.0,77,0.00,,,0.23,weatherlink.com 1.10,2013-06-25 19:02:00,
2013-06-25 15:17:00,79.5,72.0,29.83,West,271,1.0,4.0,78,0.00,,,0.23,weatherlink.com 1.10,2013-06-25 19:17:00,
2013-06-25 15:32:00,81.2,73.0,29.84,North,360,3.0,6.0,75,0.00,,,0.23,weatherlink.com 1.10,2013-06-25 19:32:00,
2013-06-25 15:47:00,81.7,73.0,29.84,NNW,348,2.0,5.0,74,0.00,,,0.23,weatherlink.com 1.10,2013-06-25 19:47:00,
2013-06-25 16:02:00,82.1,74.0,29.83,WNW,299,2.0,5.0,76,0.00,,,0.23,weatherlink.com 1.10,2013-06-25 20:02:00,
2013-06-25 16:17:00,81.8,74.0,29.84,NNW,332,1.0,3.0,76,0.00,,,0.23,weatherlink.com 1.10,2013-06-25 20:17:00,
2013-06-25 16:32:00,82.3,73.0,29.85,NNW,335,2.0,4.0,74,0.00,,,0.23,weatherlink.com 1.10,2013-06-25 20:32:00,
2013-06-25 16:47:00,82.0,73.0,29.85,NNW,329,4.0,5.0,73,0.00,,,0.23,weatherlink.com 1.10,2013-06-25 20:47:00,
2013-06-25 17:02:00,82.5,73.0,29.85,NNW,336,1.0,6.0,72,0.00,,,0.23,weatherlink.com 1.10,2013-06-25 21:02:00,
2013-06-25 17:18:00,82.5,73.0,29.86,North,5,3.0,8.0,72,0.00,,,0.23,weatherlink.com 1.10,2013-06-25 21:18:00,
2013-06-25 17:32:00,81.4,73.0,29.85,WSW,257,3.0,4.0,75,0.00,,,0.23,weatherlink.com 1.10,2013-06-25 21:32:00,
2013-06-25 17:48:00,81.1,72.0,29.85,SE,143,2.0,6.0,74,0.00,,,0.23,weatherlink.com 1.10,2013-06-25 21:48:00,
2013-06-25 18:03:00,81.2,72.0,29.84,WSW,258,2.0,4.0,73,0.00,,,0.23,weatherlink.com 1.10,2013-06-25 22:03:00,
2013-06-25 18:18:00,80.6,72.0,29.82,SW,229,0.0,3.0,76,0.00,,,0.23,weatherlink.com 1.10,2013-06-25 22:18:00,
2013-06-25 18:33:00,81.1,72.0,29.82,North,9,0.0,4.0,74,0.00,,,0.23,weatherlink.com 1.10,2013-06-25 22:33:00,
2013-06-25 18:48:00,80.1,72.0,29.82,SW,221,2.0,4.0,76,0.00,,,0.23,weatherlink.com 1.10,2013-06-25 22:48:00,
2013-06-25 19:03:00,78.7,72.0,29.82,NW,306,1.0,5.0,79,0.00,,,0.23,weatherlink.com 1.10,2013-06-25 23:03:00,
2013-06-25 19:18:00,78.3,72.0,29.82,NNW,338,0.0,7.0,82,0.00,,,0.23,weatherlink.com 1.10,2013-06-25 23:18:00,
2013-06-25 19:33:00,77.9,72.0,29.83,NW,325,1.0,8.0,81,0.00,,,0.23,weatherlink.com 1.10,2013-06-25 23:33:00,
2013-06-25 19:48:00,77.7,71.0,29.84,NNW,344,0.0,5.0,81,0.00,,,0.23,weatherlink.com 1.10,2013-06-25 23:48:00,
2013-06-25 20:03:00,77.4,72.0,29.83,ENE,61,0.0,2.0,82,0.00,,,0.23,weatherlink.com 1.10,2013-06-26 00:03:00,
2013-06-25 20:18:00,77.0,71.0,29.82,NNE,17,0.0,2.0,82,0.00,,,0.23,weatherlink.com 1.10,2013-06-26 00:18:00,
2013-06-25 20:33:00,76.7,71.0,29.82,NNE,17,0.0,2.0,83,0.00,,,0.23,weatherlink.com 1.10,2013-06-26 00:33:00,
2013-06-25 20:48:00,76.4,71.0,29.82,NE,49,0.0,0.0,84,0.00,,,0.23,weatherlink.com 1.10,2013-06-26 00:48:00,
2013-06-25 21:03:00,76.1,71.0,29.83,NE,49,0.0,1.0,85,0.01,,,0.24,weatherlink.com 1.10,2013-06-26 01:03:00,
2013-06-25 21:18:00,75.6,72.0,29.83,NE,49,0.0,0.0,87,0.03,,,0.26,weatherlink.com 1.10,2013-06-26 01:18:00,
2013-06-25 21:33:00,75.2,72.0,29.84,NE,49,0.0,0.0,90,0.05,,,0.28,weatherlink.com 1.10,2013-06-26 01:33:00,
2013-06-25 21:48:00,74.8,72.0,29.84,NE,49,0.0,1.0,91,0.07,,,0.30,weatherlink.com 1.10,2013-06-26 01:48:00,
2013-06-25 22:03:00,74.4,72.0,29.83,NE,49,0.0,0.0,92,0.07,,,0.31,weatherlink.com 1.10,2013-06-26 02:03:00,
2013-06-25 22:18:00,74.0,72.0,29.84,NE,49,0.0,0.0,92,0.04,,,0.31,weatherlink.com 1.10,2013-06-26 02:18:00,
2013-06-25 22:33:00,73.7,72.0,29.84,NE,49,0.0,1.0,93,0.04,,,0.32,weatherlink.com 1.10,2013-06-26 02:33:00,
2013-06-25 22:48:00,73.5,71.0,29.84,NE,49,0.0,0.0,93,0.02,,,0.32,weatherlink.com 1.10,2013-06-26 02:48:00,
2013-06-25 23:03:00,73.3,72.0,29.84,NE,49,0.0,2.0,94,0.01,,,0.32,weatherlink.com 1.10,2013-06-26 03:03:00,
2013-06-25 23:18:00,73.0,71.0,29.85,SW,225,2.0,3.0,94,0.02,,,0.33,weatherlink.com 1.10,2013-06-26 03:18:00,
2013-06-25 23:33:00,72.5,70.0,29.87,WSW,248,0.0,7.0,93,0.01,,,0.33,weatherlink.com 1.10,2013-06-26 03:33:00,
2013-06-25 23:48:00,71.7,69.0,29.89,SW,232,0.0,5.0,92,0.01,,,0.33,weatherlink.com 1.10,2013-06-26 03:48:00,